Vacaville, CA

2:25 AM PST on February 21, 2018 (GMT -0800)
Nut Tree

Weather History for KVCB - December, 2012

Change the Weather History Date:

Wednesday, December 5, 2012

  Actual Average Record
Temperature  
Mean Temperature 54 °F -  
Max Temperature 55 °F 58 °F 71 °F (1976)
Min Temperature 53 °F 37 °F 24 °F (1972)
Degree Days  
Heating Degree Days 11    
Growing Degree Days 4 (Base 50)    
Moisture  
Dew Point 54 °F    
Average Humidity 97    
Maximum Humidity 100    
Minimum Humidity 89    
Precipitation  
Precipitation 0.31 in - - ()
Sea Level Pressure  
Sea Level Pressure 30.16 in    
Wind  
Wind Speed 1 mph (North)    
Max Wind Speed 7 mph    
Max Gust Speed -    
Visibility 5 miles    
Events Fog , Rain    
Averages and records for this station are not official NWS values.
T = Trace of Precipitation, MM = Missing Value Source: NWS Daily Summary

Daily Weather History Graph

Daily Weather History Graph

Search for Another Location

Airport or City:

Trip Planner

Search our weather history database for the weather conditions in past years. The results will help you decide how hot, cold, wet, or windy it might be!

Date:

Astronomy

Dec. 05, 2012 Rise Set
Actual Time 7:10 AM PST 4:47 PM PST
Civil Twilight 6:40 AM PST 5:16 PM PST
Nautical Twilight 6:07 AM PST 5:49 PM PST
Astronomical Twilight 5:35 AM PST 6:21 PM PST
Moon 11:38 PM PST (12/5) 11:40 AM PST (12/5)
Length of Visible Light 10h 35m
Length of Day
9h 36m
Waning Gibbous, 58% of the Moon is Illuminated
Dec 5
Waning Gibbous
Dec 6
Last Quarter
Dec 13
New
Dec 19
First Quarter
Dec 28
Full

Hourly Weather History & Observations

Time (PST) Temp. Dew Point Humidity Pressure Visibility Wind Dir Wind Speed Gust Speed Precip Events Conditions
12:02 AM 55.4 °F 55.4 °F 100% 30.17 in 1.0 mi Calm Calm - 0.01 in Rain Light Rain
12:53 AM 55.0 °F 55.0 °F 100% 30.16 in 1.2 mi Calm Calm - 0.06 in   Overcast
1:53 AM 55.0 °F 55.0 °F 100% 30.15 in 1.0 mi SE 4.6 mph - 0.02 in Rain Light Rain
2:53 AM 55.0 °F 54.0 °F 96% 30.16 in 1.2 mi SE 4.6 mph - 0.04 in   Overcast
3:53 AM 54.0 °F 54.0 °F 100% 30.15 in 1.0 mi Calm Calm - 0.05 in Rain Light Rain
4:53 AM 54.0 °F 54.0 °F 100% 30.15 in 1.5 mi Calm Calm - 0.11 in Rain Light Rain
6:53 AM 55.0 °F 55.0 °F 100% 30.17 in 1.0 mi Calm Calm - 0.01 in   Overcast
7:05 AM 55.4 °F 55.4 °F 100% 30.17 in 0.8 mi Calm Calm - N/A   Overcast
7:42 AM 55.4 °F 55.4 °F 100% 30.17 in 1.0 mi Calm Calm - 0.01 in   Overcast
7:53 AM 55.0 °F 55.0 °F 100% 30.18 in 1.0 mi Calm Calm - 0.01 in   Overcast
8:06 AM 55.4 °F 55.4 °F 100% 30.18 in 0.8 mi Calm Calm - N/A   Overcast
8:48 AM 55.4 °F 55.4 °F 100% 30.18 in 1.0 mi Calm Calm - 0.01 in   Overcast
8:53 AM 55.0 °F 55.0 °F 100% 30.19 in 1.2 mi Calm Calm - 0.01 in   Overcast
9:45 AM 55.4 °F 55.4 °F 100% 30.19 in 0.8 mi Calm Calm - N/A   Overcast
9:53 AM 55.9 °F 55.9 °F 100% 30.19 in 0.5 mi Calm Calm - N/A Fog Fog
10:53 AM 55.0 °F 55.0 °F 100% 30.19 in 0.5 mi Variable 3.5 mph - N/A Fog Fog
11:15 AM 55.4 °F 55.4 °F 100% 30.19 in 1.2 mi Calm Calm - N/A   Overcast
11:53 AM 55.0 °F 54.0 °F 96% 30.18 in 1.2 mi North 6.9 mph - N/A   Overcast
12:29 PM 55.4 °F 55.4 °F 100% 30.16 in 3.0 mi Variable 3.5 mph - N/A   Overcast
12:53 PM 55.9 °F 55.0 °F 97% 30.16 in 8.0 mi Variable 3.5 mph - N/A   Overcast
1:07 PM 55.4 °F 55.4 °F 100% 30.16 in 10.0 mi North 4.6 mph - N/A   Overcast
1:53 PM 55.9 °F 55.0 °F 97% 30.14 in 8.0 mi North 3.5 mph - N/A   Overcast
2:53 PM 55.9 °F 54.0 °F 93% 30.13 in 10.0 mi North 3.5 mph - N/A   Overcast
3:13 PM 55.4 °F 53.6 °F 94% 30.13 in 10.0 mi Variable 3.5 mph - N/A   Overcast
3:53 PM 55.9 °F 54.0 °F 93% 30.14 in 10.0 mi Calm Calm - N/A   Overcast
4:06 PM 55.4 °F 53.6 °F 94% 30.13 in 10.0 mi North 3.5 mph - N/A   Overcast
4:39 PM 55.4 °F 53.6 °F 94% 30.13 in 10.0 mi Calm Calm - N/A   Overcast
4:53 PM 55.0 °F 53.1 °F 93% 30.13 in 10.0 mi Calm Calm - N/A   Overcast
5:51 PM 55.4 °F 53.6 °F 94% 30.14 in 10.0 mi Calm Calm - N/A   Overcast
5:53 PM 55.0 °F 53.1 °F 93% 30.14 in 10.0 mi Calm Calm - N/A   Overcast
6:18 PM 55.4 °F 53.6 °F 94% 30.15 in 10.0 mi Variable 3.5 mph - N/A   Overcast
6:35 PM 53.6 °F 51.8 °F 94% 30.15 in 10.0 mi NNW 3.5 mph - N/A   Overcast
6:53 PM 55.0 °F 52.0 °F 89% 30.15 in 10.0 mi North 3.5 mph - N/A   Overcast
7:53 PM 55.0 °F 53.1 °F 93% 30.15 in 10.0 mi Calm Calm - N/A   Overcast
8:53 PM 54.0 °F 53.1 °F 97% 30.15 in 10.0 mi North 4.6 mph - N/A   Overcast
9:53 PM 54.0 °F 53.1 °F 97% 30.15 in 10.0 mi NNW 3.5 mph - N/A   Overcast
10:53 PM 54.0 °F 53.1 °F 97% 30.15 in 10.0 mi Calm Calm - N/A   Overcast
11:53 PM 55.0 °F 53.1 °F 93% 30.15 in 10.0 mi Calm Calm - N/A   Overcast